Temperature
6 7 8 8 9 9 9 10 10 11 11 12 13 13 13 15 15 16 16 17 17 18 17 17 16 16 15 15 14 13 12 12 11 11 11 10 10 10 9 9 9 9 9 9
6 7 8 8 9 10 10 11 10 11 11 12 13 13 13 14 14 15 16 17 17 17 17 17 16 16 15 15 14 12 12 11 11 10 10 10 9 9 9 9 9 9 9 9
5 7 7 7 9 10 10 11 11 11 12 12 12 12 13 14 15 15 16 17 17 17 17 17 17 16 15 15 13 12 11 11 10 10 10 9 9 9 9 9 9 9 8 8
4 5 5 8 9 10 10 10 11 11 11 12 12 13 15 16 16 16 17 17 17 17 17 17 17 16 15 14 13 12 11 10 10 10 9 9 9 9 9 9 8 8 8 8
3 4 5 7 8 9 9 9 10 10 11 11 12 13 14 15 16 16 17 17 17 17 17 17 17 16 15 14 13 12 11 11 10 10 9 9 9 8 8 8 8 8 8 7
3 4 6 8 8 9 9 9 9 9 10 10 10 10 12 14 14 15 16 16 16 17 16 16 16 16 15 14 13 13 12 11 11 10 9 9 8 8 8 8 8 7 7 7
3 4 5 7 8 9 8 9 9 9 9 9 9 11 13 13 14 14 15 15 16 16 16 16 16 15 15 14 14 13 12 11 10 9 9 8 8 8 7 7 7 7 7 6
3 4 5 7 7 8 8 9 10 10 10 10 10 11 12 12 13 14 14 14 15 15 15 15 15 15 14 14 14 13 12 11 10 9 8 8 7 7 7 7 6 6 6 6
3 5 6 7 7 8 9 9 10 11 11 11 10 11 11 12 12 13 13 14 14 15 15 15 14 14 14 14 13 12 11 10 9 9 8 7 7 7 6 6 6 6 5 5
3 4 5 6 7 8 8 9 10 10 11 11 11 11 11 11 12 12 12 13 14 14 14 14 14 13 13 13 12 11 10 10 9 8 7 7 6 6 6 6 5 5 4 4
2 4 5 6 7 8 8 8 9 10 10 11 11 11 11 11 11 12 12 12 13 13 13 13 13 12 12 12 11 10 10 9 8 7 7 6 6 5 5 5 5 4 4 4
3 4 4 5 7 7 7 8 8 9 10 10 10 11 11 11 11 11 11 12 12 12 12 12 12 11 11 10 10 10 9 8 8 7 6 6 5 5 4 4 4 3 3 3
4 5 5 5 6 7 7 8 8 9 10 10 10 10 10 10 10 10 10 11 11 12 11 11 11 11 10 9 9 9 8 8 7 6 6 5 5 4 4 3 3 2 2 2
4 4 4 5 5 6 7 8 8 8 9 9 10 10 10 10 10 10 10 10 10 10 10 10 10 10 9 9 8 8 7 7 6 6 5 5 4 4 3 3 2 2 1 1
4 4 4 5 5 6 7 7 7 8 8 9 9 9 9 9 9 9 9 9 9 9 9 9 9 8 8 8 7 7 7 6 6 5 5 4 4 3 3 2 2 1 1 0
3 4 4 4 5 6 6 7 7 7 8 8 8 8 8 8 8 8 8 8 8 8 8 8 8 8 7 7 6 6 6 5 5 5 4 3 3 2 2 1 1 1 0 0
2 3 3 4 4 5 6 6 7 7 7 8 8 8 8 7 7 7 7 7 7 7 7 7 7 6 6 6 6 5 5 5 4 4 3 3 2 2 2 1 1 0 -0 -1
2 3 3 4 4 4 5 5 6 6 7 7 7 7 7 7 7 7 7 7 6 6 6 6 5 5 5 5 5 5 4 4 4 3 3 2 2 1 1 0 -0 -1 -1 -2
2 2 3 3 4 4 4 5 5 6 6 6 6 6 6 6 6 6 6 6 6 5 5 4 4 5 4 4 4 4 4 3 3 2 2 1 1 0 -0 -0 -1 -1 -2 -2
2 2 3 3 3 4 4 4 4 5 5 5 5 5 5 5 5 5 5 5 4 4 4 4 3 3 3 3 3 3 2 2 2 1 1 1 0 -0 -1 -1 -2 -2 -3 -3
1 2 2 3 3 3 3 3 4 4 4 4 4 4 4 4 4 4 4 3 3 2 2 2 2 2 2 2 2 2 1 1 1 0 -0 -0 -1 -1 -2 -2 -3 -3 -3 -4
0 1 1 1 2 2 2 2 3 3 3 3 3 3 3 2 2 2 2 2 1 1 2 2 1 1 1 1 1 1 0 0 -0 -0 -1 -1 -2 -2 -2 -3 -3 -4 -4 -4
-1 -0 0 0 1 0 0 1 1 2 2 2 2 2 2 1 1 1 0 0 0 0 1 1 0 0 0 -0 -0 -1 -1 -1 -1 -1 -2 -2 -2 -3 -3 -4 -4 -4 -5 -5
-2 -1 -1 -1 -1 -1 -1 -1 -1 -0 -0 -0 -0 -0 0 -0 -1 -1 -0 -1 -1 -1 -0 -1 -1 -1 -1 -1 -1 -2 -2 -2 -2 -2 -3 -3 -3 -4 -4 -4 -5 -5 -5 -6
-3 -3 -3 -3 -3 -3 -3 -2 -2 -2 -2 -2 -2 -2 -2 -1 -1 -2 -2 -2 -2 -2 -2 -2 -2 -2 -2 -2 -2 -3 -3 -3 -3 -3 -4 -4 -4 -4 -5 -5 -5 -5 -6 -6
-5 -5 -5 -4 -4 -4 -4 -3 -3 -3 -3 -3 -3 -3 -3 -3 -3 -3 -3 -3 -3 -3 -3 -3 -3 -3 -3 -3 -3 -4 -4 -4 -4 -4 -5 -5 -5 -5 -5 -6 -6 -6 -6 -6
-6 -6 -6 -6 -6 -5 -5 -5 -5 -5 -4 -4 -4 -4 -4 -4 -4 -4 -4 -3 -4 -4 -4 -4 -4 -4 -4 -4 -4 -4 -5 -5 -5 -5 -5 -5 -6 -6 -6 -6 -6 -6 -7 -7
Wind_Speed
9 9 7 10 13 13 13 16 15 15 15 13 10 9 8 7 7 6 7 8 9 10 9 9 9 9 9 10 10 11 12 13 13 12 11 12 12 13 13 14 14 14 13 12
10 10 9 10 14 17 20 19 17 14 15 11 10 7 8 9 9 9 10 11 11 10 10 11 11 11 10 11 11 11 12 12 11 11 11 12 12 13 13 13 12 12 13 13
8 8 7 13 17 18 15 15 17 20 19 6 9 11 12 11 11 12 12 12 12 13 13 13 12 12 12 12 10 11 11 11 11 12 12 12 12 12 13 13 12 12 12 12
4 4 11 11 8 10 14 16 15 15 11 10 11 10 11 11 13 13 12 11 12 11 11 11 10 10 10 10 11 11 11 11 11 12 12 11 12 13 12 10 11 11 11 11
4 6 8 8 7 12 13 14 12 14 11 9 7 7 10 9 9 11 12 11 11 11 11 10 10 11 10 10 11 11 12 12 12 12 12 12 13 12 9 10 10 9 10 11
5 6 10 8 5 5 6 11 7 9 10 7 4 9 13 8 8 9 7 7 7 7 7 8 9 11 12 12 12 13 13 12 11 12 13 13 12 10 7 8 9 9 8 9
8 7 8 6 4 5 9 10 7 10 10 8 10 14 10 7 8 8 8 7 7 7 8 9 10 12 12 12 13 12 10 10 10 11 11 10 9 8 9 8 8 8 8 7
7 8 9 3 2 7 7 5 5 7 9 10 12 11 7 7 7 7 6 6 6 7 6 6 10 12 12 12 10 9 10 10 10 10 9 8 10 9 9 9 9 8 7 5
7 9 6 4 5 8 6 6 6 5 6 7 8 8 7 6 6 6 6 6 6 8 7 5 8 11 13 10 10 11 11 10 10 9 8 9 10 10 8 8 7 7 7 6
6 10 11 11 9 8 7 8 7 6 5 5 6 6 6 5 4 4 4 5 6 8 8 6 7 8 9 10 11 12 12 10 10 10 9 8 7 8 8 8 7 7 7 6
9 11 10 10 9 9 9 9 8 6 5 5 5 5 5 5 5 5 4 4 6 8 9 8 7 8 8 10 12 12 11 10 9 9 9 8 6 6 8 7 9 9 8 7
11 9 8 12 12 11 10 11 9 7 6 4 4 5 4 4 4 4 5 5 6 7 8 8 8 8 8 10 12 13 11 10 8 7 7 7 7 4 4 5 7 7 7 7
15 14 13 16 17 14 13 12 10 8 7 5 4 4 3 3 2 3 4 6 8 8 8 8 8 8 8 9 11 11 11 10 8 8 8 7 7 7 5 4 6 6 7 7
14 12 15 15 15 14 12 11 8 7 5 4 3 2 3 2 2 4 5 6 7 8 8 9 9 8 7 9 10 11 10 10 9 7 7 7 7 6 6 6 4 2 3 4
14 13 15 14 13 12 9 7 6 6 4 3 3 4 4 4 4 4 5 7 9 9 8 9 9 8 8 10 11 11 9 8 7 7 7 6 6 6 5 6 5 3 2 2
12 11 11 11 12 11 8 7 8 7 6 5 4 4 4 4 4 5 6 8 9 9 8 8 8 8 9 10 11 9 8 11 10 8 7 6 6 6 5 5 4 4 3 3
12 12 11 10 11 10 8 8 8 7 6 7 7 6 6 6 6 6 6 6 7 7 7 8 8 8 9 10 10 8 8 9 11 8 6 6 6 5 5 5 4 4 3 4
14 15 13 12 11 10 9 7 7 6 6 6 7 7 7 8 8 8 8 9 10 9 7 7 8 9 9 9 8 8 7 7 6 6 6 5 5 5 5 4 4 4 3 3
12 12 12 11 10 9 7 6 6 5 6 7 8 7 6 7 8 9 9 10 10 8 5 7 12 10 9 9 9 7 7 7 6 5 5 6 5 4 4 4 4 3 3 3
9 8 7 6 5 5 5 5 5 5 5 7 8 8 8 8 9 10 10 8 5 5 7 9 9 8 8 8 9 6 7 7 6 5 5 4 4 4 3 3 3 3 3 3
5 3 1 1 2 2 3 5 6 6 6 7 9 10 10 9 9 10 10 8 5 8 9 11 8 7 6 7 8 6 6 6 6 5 4 4 3 3 3 2 2 3 3 3
2 1 2 4 5 5 5 5 7 8 9 9 11 11 12 11 11 10 8 6 7 10 8 7 6 8 9 9 6 6 6 5 5 4 4 3 3 3 2 2 3 3 3 3
3 4 5 6 7 8 9 9 9 10 11 11 11 11 11 10 8 9 8 6 7 10 8 6 9 12 11 7 6 5 5 5 4 3 3 3 3 3 3 3 3 3 3 4
7 8 8 8 10 11 11 10 11 11 12 11 10 10 10 10 8 7 8 11 11 11 8 9 12 11 10 6 5 5 4 4 3 3 2 2 2 2 2 2 3 3 4 5
8 9 9 10 10 9 10 12 13 13 13 11 12 11 9 7 8 9 9 10 12 12 8 10 12 10 7 5 5 4 3 3 2 2 2 1 1 2 2 3 3 4 4 5
8 8 8 8 8 8 8 9 9 9 10 10 10 9 9 9 10 9 8 9 10 11 8 6 6 7 5 4 4 3 2 2 2 1 1 1 1 2 3 3 4 4 5 5
9 9 8 9 9 8 8 9 9 9 9 9 10 8 9 8 8 9 9 8 7 7 6 5 5 4 4 4 3 2 2 1 1 0 1 1 2 2 3 4 4 5 5 6
Wind_Direction
260 266 240 237 227 217 219 215 215 226 227 231 229 224 225 227 219 210 213 212 208 205 206 204 201 198 194 191 185 181 183 189 193 189 185 182 181 181 180 181 183 182 182 183
256 246 243 250 233 223 224 223 225 234 240 230 231 227 230 225 216 218 221 217 215 211 206 207 205 200 194 191 186 181 186 191 185 180 180 181 179 177 177 179 178 178 183 183
246 250 242 236 221 215 221 222 219 230 235 212 219 219 224 224 221 217 222 221 215 210 208 208 204 197 194 190 179 181 186 184 179 178 179 178 173 173 177 178 175 179 183 183
241 228 227 237 221 218 229 235 226 235 236 218 223 230 229 218 216 221 219 218 217 212 208 207 197 189 184 174 176 180 182 180 177 175 175 171 171 175 176 174 177 181 183 184
207 223 255 268 230 203 211 236 227 235 243 241 238 243 245 229 218 221 219 214 213 211 208 198 188 179 169 172 175 178 183 183 179 175 172 172 176 177 172 171 176 178 181 182
204 212 230 242 240 209 194 240 239 235 244 245 198 231 247 242 235 232 227 217 210 206 195 187 184 167 167 175 178 187 186 181 175 173 173 176 177 170 161 167 171 171 177 182
217 228 255 266 263 142 191 237 256 236 236 228 219 235 251 236 232 227 226 218 202 186 187 191 175 164 172 178 190 188 170 163 165 170 172 169 163 156 155 155 158 167 173 179
206 221 243 277 132 181 237 280 267 246 235 232 241 249 249 236 225 217 214 209 187 176 186 181 167 166 173 186 184 158 153 156 160 161 159 155 154 153 155 157 162 168 170 176
214 231 270 278 264 272 281 277 271 257 253 238 245 253 255 247 228 218 206 197 182 171 170 167 169 170 175 180 155 147 149 154 154 151 151 153 156 156 158 161 167 174 175 184
251 260 276 282 280 285 289 283 274 270 262 232 236 243 245 238 228 216 207 189 174 161 160 166 167 167 168 155 147 145 149 150 149 149 148 148 152 158 163 169 171 175 181 187
256 271 280 269 264 277 287 298 298 287 262 237 226 242 236 230 223 213 203 186 171 168 167 166 158 155 149 145 143 143 145 146 146 148 150 150 151 164 170 179 179 178 186 183
248 254 263 273 278 282 284 283 279 277 277 263 230 229 234 222 221 210 188 171 161 159 156 152 147 145 141 143 144 144 145 146 148 147 147 148 143 121 121 144 164 170 173 177
250 259 263 271 275 272 268 269 266 258 251 254 255 225 207 224 212 186 173 166 165 159 149 141 137 138 141 142 141 144 146 147 145 147 149 149 149 147 136 106 124 141 156 169
251 258 268 270 269 266 261 263 262 259 257 238 227 196 168 161 167 171 173 162 144 136 134 134 133 137 138 136 134 134 136 141 143 147 148 149 151 152 153 153 151 141 155 164
256 250 255 264 267 265 259 253 246 244 240 231 196 172 167 166 176 176 152 136 128 127 130 133 134 135 132 131 130 132 133 137 136 136 137 139 141 142 145 148 153 153 132 164
268 263 258 260 263 263 256 242 229 225 219 208 190 178 166 148 141 138 137 139 139 141 141 137 137 136 131 128 126 126 128 132 133 134 134 135 139 143 147 151 156 163 175 182
264 261 258 259 258 258 250 243 228 217 205 195 182 157 139 130 127 129 125 118 115 117 124 130 130 126 125 127 127 128 128 132 130 129 137 143 146 150 154 159 168 178 191 200
255 255 254 251 251 249 248 237 217 201 194 184 158 148 148 150 151 142 129 116 107 99 100 116 123 120 118 121 122 125 128 131 134 137 138 142 145 149 154 161 172 181 197 212
261 256 253 248 241 231 228 221 206 186 170 158 151 150 147 140 135 131 126 122 123 122 118 120 123 117 117 122 121 122 126 128 127 129 134 145 140 144 155 167 179 189 200 210
271 262 249 240 232 219 204 191 170 156 155 146 138 132 127 127 127 126 120 110 110 126 128 121 115 114 116 122 120 123 128 132 134 135 136 142 150 158 166 175 184 196 206 215
284 262 206 182 157 148 156 155 152 148 142 139 138 135 130 124 122 120 119 112 102 114 119 119 116 118 118 123 118 122 126 130 134 139 143 147 151 158 169 179 193 208 217 226
336 52 93 100 100 89 89 105 115 117 116 115 117 120 120 117 112 102 95 114 122 119 113 112 114 120 124 118 115 120 123 126 129 134 141 149 159 171 186 197 211 225 230 234
39 67 82 89 95 91 80 81 89 100 106 109 114 118 118 116 117 119 112 108 112 111 108 112 120 119 114 107 111 115 119 122 126 133 143 155 168 182 199 214 227 233 238 244
59 69 74 79 86 87 85 82 83 87 88 88 90 96 104 105 92 85 103 112 109 104 101 111 113 112 107 104 107 109 112 117 124 134 145 156 176 197 215 229 241 247 249 251
65 72 76 81 83 86 90 91 89 87 87 85 79 75 76 85 99 100 98 100 103 97 95 99 100 98 95 99 102 107 112 123 135 139 147 172 205 225 243 249 251 254 256 257
67 70 70 71 78 86 90 92 92 92 94 92 83 78 79 83 89 91 92 91 91 92 87 83 85 85 86 92 96 98 100 100 85 91 155 225 246 257 263 265 265 265 265 265
68 71 74 73 68 70 77 83 88 89 92 97 95 86 85 86 86 86 87 86 85 82 80 77 75 77 81 84 85 82 81 82 86 165 261 271 273 273 274 273 272 271 270 269
Height
1386 1381 1379 1378 1379 1381 1384 1382 1386 1379 1378 1373 1372 1373 1373 1374 1376 1377 1379 1381 1383 1384 1387 1389 1391 1393 1395 1397 1400 1403 1407 1411 1415 1420 1425 1430 1435 1440 1445 1450 1454 1459 1463 1467
1384 1378 1376 1374 1372 1373 1373 1373 1375 1374 1371 1365 1366 1368 1370 1372 1374 1375 1376 1377 1379 1381 1383 1385 1387 1389 1391 1393 1395 1399 1402 1406 1410 1415 1420 1425 1430 1435 1440 1445 1449 1454 1457 1461
1383 1376 1374 1372 1362 1362 1363 1362 1364 1364 1359 1362 1363 1364 1365 1366 1368 1370 1371 1373 1375 1377 1379 1381 1382 1384 1386 1389 1391 1394 1398 1402 1406 1411 1415 1420 1425 1430 1435 1439 1444 1448 1452 1456
1384 1379 1377 1358 1351 1354 1356 1354 1355 1354 1353 1356 1358 1359 1359 1361 1363 1364 1366 1368 1370 1372 1374 1377 1379 1381 1383 1385 1388 1390 1394 1397 1402 1406 1411 1416 1421 1425 1430 1434 1439 1443 1447 1450
1383 1377 1367 1355 1349 1349 1352 1351 1349 1350 1350 1352 1354 1356 1354 1355 1358 1359 1361 1363 1366 1368 1370 1372 1374 1376 1379 1381 1384 1386 1389 1393 1397 1402 1406 1411 1416 1420 1425 1429 1433 1438 1442 1445
1380 1375 1362 1346 1342 1341 1348 1349 1344 1346 1347 1350 1352 1356 1348 1349 1352 1353 1355 1358 1360 1362 1365 1367 1369 1372 1374 1377 1379 1382 1385 1389 1393 1398 1402 1407 1411 1416 1420 1425 1429 1433 1437 1440
1374 1369 1355 1344 1340 1340 1350 1342 1338 1339 1341 1344 1346 1344 1343 1345 1346 1347 1349 1352 1354 1356 1359 1362 1364 1367 1370 1372 1375 1378 1382 1386 1390 1395 1399 1404 1408 1413 1417 1421 1425 1429 1432 1435
1366 1364 1355 1340 1340 1341 1338 1335 1334 1334 1335 1336 1336 1336 1338 1338 1339 1341 1342 1345 1348 1350 1353 1356 1360 1362 1365 1368 1371 1375 1379 1383 1387 1391 1396 1401 1405 1409 1413 1417 1421 1424 1427 1430
1356 1349 1340 1337 1337 1336 1334 1333 1332 1330 1330 1331 1331 1331 1331 1332 1333 1335 1337 1339 1342 1345 1348 1352 1355 1358 1361 1364 1368 1372 1376 1380 1384 1389 1393 1398 1401 1405 1409 1412 1416 1418 1421 1424
1350 1341 1337 1335 1333 1332 1332 1331 1329 1328 1327 1327 1326 1326 1327 1327 1328 1329 1332 1334 1337 1341 1344 1347 1350 1354 1358 1361 1365 1369 1373 1377 1381 1386 1390 1394 1398 1402 1405 1408 1410 1413 1416 1419
1345 1339 1334 1330 1330 1330 1329 1327 1326 1325 1324 1324 1323 1323 1323 1323 1324 1325 1328 1331 1334 1336 1340 1343 1347 1351 1355 1359 1363 1366 1370 1374 1378 1383 1387 1390 1394 1398 1401 1404 1406 1409 1411 1414
1337 1333 1334 1329 1327 1327 1326 1324 1322 1322 1321 1321 1321 1320 1320 1320 1321 1322 1324 1327 1330 1333 1337 1340 1344 1348 1352 1356 1360 1364 1367 1371 1375 1380 1384 1387 1391 1395 1398 1401 1404 1406 1408 1411
1329 1328 1327 1324 1322 1322 1321 1320 1319 1319 1318 1317 1317 1318 1318 1318 1319 1321 1322 1325 1328 1331 1334 1338 1342 1346 1350 1354 1358 1362 1365 1369 1373 1377 1381 1384 1387 1391 1394 1397 1400 1402 1404 1406
1322 1322 1319 1317 1316 1315 1315 1315 1315 1314 1314 1314 1314 1315 1315 1316 1317 1319 1321 1324 1327 1330 1333 1337 1341 1345 1349 1352 1356 1360 1364 1368 1371 1374 1378 1381 1384 1387 1390 1392 1395 1397 1400 1402
1313 1313 1312 1310 1309 1308 1308 1308 1308 1308 1309 1310 1311 1312 1313 1314 1316 1318 1321 1323 1326 1329 1332 1336 1339 1343 1347 1351 1355 1358 1362 1366 1369 1372 1376 1379 1382 1385 1387 1390 1392 1394 1396 1398
1306 1305 1305 1303 1302 1301 1301 1302 1302 1303 1304 1306 1307 1309 1311 1313 1315 1317 1320 1322 1325 1327 1331 1335 1338 1342 1346 1350 1354 1357 1361 1364 1367 1370 1373 1376 1379 1382 1384 1386 1388 1390 1391 1393
1300 1298 1297 1296 1296 1296 1296 1296 1297 1298 1300 1302 1304 1306 1308 1310 1313 1316 1318 1321 1324 1327 1331 1335 1338 1342 1346 1349 1353 1356 1359 1363 1366 1369 1371 1374 1377 1379 1381 1383 1384 1386 1387 1389
1292 1290 1290 1290 1290 1290 1290 1291 1292 1294 1296 1298 1301 1303 1305 1308 1311 1314 1317 1320 1324 1327 1331 1335 1339 1342 1345 1349 1352 1355 1358 1361 1364 1367 1369 1372 1374 1376 1378 1379 1381 1382 1383 1384
1282 1282 1282 1283 1283 1284 1285 1286 1288 1289 1292 1294 1297 1300 1303 1306 1309 1312 1316 1319 1323 1326 1331 1335 1338 1341 1345 1348 1352 1354 1357 1360 1363 1365 1368 1370 1371 1373 1374 1376 1377 1378 1379 1379
1275 1275 1275 1276 1276 1278 1279 1281 1283 1285 1288 1291 1294 1297 1301 1304 1308 1311 1315 1319 1323 1326 1330 1334 1337 1341 1344 1348 1351 1353 1356 1358 1361 1363 1365 1367 1368 1369 1371 1372 1373 1373 1374 1374
1270 1270 1270 1271 1272 1273 1275 1277 1279 1282 1285 1289 1292 1295 1299 1303 1307 1311 1314 1318 1323 1327 1330 1334 1337 1340 1343 1346 1349 1352 1354 1356 1359 1360 1362 1363 1365 1366 1367 1368 1368 1369 1369 1369
1267 1267 1267 1269 1270 1272 1273 1275 1278 1280 1284 1287 1291 1295 1298 1302 1306 1311 1315 1319 1322 1326 1330 1334 1337 1340 1342 1345 1348 1350 1352 1354 1356 1358 1359 1360 1361 1362 1363 1364 1364 1364 1364 1364
1267 1267 1268 1269 1270 1271 1273 1276 1278 1281 1284 1287 1291 1295 1298 1302 1307 1310 1314 1319 1323 1326 1330 1333 1336 1339 1341 1344 1346 1348 1350 1352 1353 1355 1356 1357 1358 1358 1359 1359 1359 1359 1359 1358
1268 1268 1269 1270 1271 1272 1274 1277 1280 1283 1286 1289 1293 1297 1300 1304 1308 1312 1315 1319 1323 1327 1330 1333 1335 1338 1340 1342 1344 1346 1348 1349 1350 1351 1352 1353 1354 1354 1355 1355 1354 1354 1353 1353
1270 1270 1271 1272 1274 1275 1277 1280 1283 1286 1289 1293 1297 1301 1304 1307 1310 1313 1317 1321 1324 1327 1330 1333 1335 1337 1339 1341 1342 1344 1345 1347 1347 1348 1349 1349 1350 1350 1350 1349 1349 1348 1348 1347
1274 1275 1276 1277 1278 1280 1282 1284 1287 1290 1293 1297 1301 1304 1308 1311 1313 1316 1319 1323 1326 1328 1330 1332 1334 1336 1338 1339 1340 1342 1343 1343 1344 1345 1345 1345 1345 1345 1345 1344 1343 1342 1341 1340
1279 1280 1280 1281 1283 1285 1287 1289 1291 1295 1298 1301 1304 1308 1311 1314 1317 1320 1322 1325 1327 1329 1331 1332 1334 1335 1337 1338 1339 1339 1340 1340 1341 1341 1341 1341 1341 1340 1339 1339 1338 1337 1335 1334